Paranaiguara, Brazil
Current Conditions -  °F | °C
As of 4:00 AM on Sunday 23 Nov 2014 (Local Time) from SBSR Reporting Station
Clear Clear  
Wind Chill: 72°   Ceiling: Unl
Heat Index: 72°   Visibility: 6mi
Dew Point: 66°   Wind: 3mph
Humidity: 83%   Direction: 210°SSW
Pressure: 29.91"   Gusts: NA
Location:  18.92°S, 50.65°W
Report Text: SBSR 230600Z 21003KT CAVOK 22/19 Q1013
Loading
Personal Weather Stations






























Interactive Weather Map New forecast layout! Learn more

10-Day Weather Forecast

Advertisements
Track Severe Weather on mobile